Year,Month,Day,Hour,Minute,Value (Times are PST for temperature in C)
2016,08,07,00,00,14.90
2016,08,07,00,01,14.90
2016,08,07,00,02,14.90
2016,08,07,00,03,14.90
2016,08,07,00,04,14.90
2016,08,07,00,05,14.90
2016,08,07,00,06,14.90
2016,08,07,00,07,14.80
2016,08,07,00,08,14.80
2016,08,07,00,09,14.80
2016,08,07,00,10,14.80
2016,08,07,00,11,14.80
2016,08,07,00,12,14.80
2016,08,07,00,13,14.80
2016,08,07,00,14,14.80
2016,08,07,00,15,14.80
2016,08,07,00,16,14.80
2016,08,07,00,17,14.80
2016,08,07,00,18,14.80
2016,08,07,00,19,14.80
2016,08,07,00,20,14.80
2016,08,07,00,21,14.80
2016,08,07,00,22,14.80
2016,08,07,00,23,14.80
2016,08,07,00,24,14.80
2016,08,07,00,25,14.80
2016,08,07,00,26,14.80
2016,08,07,00,27,14.80
2016,08,07,00,28,14.80
2016,08,07,00,29,14.80
2016,08,07,00,30,14.80
2016,08,07,00,31,14.80
2016,08,07,00,32,14.70
2016,08,07,00,33,14.70
2016,08,07,00,34,14.70
2016,08,07,00,35,14.70
2016,08,07,00,36,14.70
2016,08,07,00,37,14.70
2016,08,07,00,38,14.70
2016,08,07,00,39,14.70
2016,08,07,00,40,14.70
2016,08,07,00,41,14.70
2016,08,07,00,42,14.60
2016,08,07,00,43,14.60
2016,08,07,00,44,14.60
2016,08,07,00,45,14.60
2016,08,07,00,46,14.60
2016,08,07,00,47,14.60
2016,08,07,00,48,14.60
2016,08,07,00,49,14.60
2016,08,07,00,50,14.60
2016,08,07,00,51,14.60
2016,08,07,00,52,14.60
2016,08,07,00,53,14.60
2016,08,07,00,54,14.60
2016,08,07,00,55,14.70
2016,08,07,00,56,14.70
2016,08,07,00,57,14.70
2016,08,07,00,58,14.70
2016,08,07,00,59,14.70
2016,08,07,01,00,14.70
2016,08,07,01,01,14.70
2016,08,07,01,02,14.70
2016,08,07,01,03,14.70
2016,08,07,01,04,14.70
2016,08,07,01,05,14.70
2016,08,07,01,06,14.70
2016,08,07,01,07,14.70
2016,08,07,01,08,14.70
2016,08,07,01,09,14.60
2016,08,07,01,10,14.60
2016,08,07,01,11,14.60
2016,08,07,01,12,14.60
2016,08,07,01,13,14.60
2016,08,07,01,14,14.60
2016,08,07,01,15,14.60
2016,08,07,01,16,14.50
2016,08,07,01,17,14.50
2016,08,07,01,18,14.50
2016,08,07,01,19,14.50
2016,08,07,01,20,14.50
2016,08,07,01,21,14.50
2016,08,07,01,22,14.50
2016,08,07,01,23,14.50
2016,08,07,01,24,14.50
2016,08,07,01,25,14.50
2016,08,07,01,26,14.40
2016,08,07,01,27,14.40
2016,08,07,01,28,14.40
2016,08,07,01,29,14.40
2016,08,07,01,30,14.40
2016,08,07,01,31,14.40
2016,08,07,01,32,14.40
2016,08,07,01,33,14.40
2016,08,07,01,34,14.40
2016,08,07,01,35,14.40
2016,08,07,01,36,14.40
2016,08,07,01,37,14.40
2016,08,07,01,38,14.40
2016,08,07,01,39,14.40
2016,08,07,01,40,14.40
2016,08,07,01,41,14.40
2016,08,07,01,42,14.40
2016,08,07,01,43,14.40
2016,08,07,01,44,14.40
2016,08,07,01,45,14.30
2016,08,07,01,46,14.30
2016,08,07,01,47,14.30
2016,08,07,01,48,14.30
2016,08,07,01,49,14.30
2016,08,07,01,50,14.30
2016,08,07,01,51,14.30
2016,08,07,01,52,14.30
2016,08,07,01,53,14.30
2016,08,07,01,54,14.30
2016,08,07,01,55,14.30
2016,08,07,01,56,14.30
2016,08,07,01,57,14.30
2016,08,07,01,58,14.30
2016,08,07,01,59,14.30
2016,08,07,02,00,14.30
2016,08,07,02,01,14.30
2016,08,07,02,02,14.30
2016,08,07,02,03,14.40
2016,08,07,02,04,14.40
2016,08,07,02,05,14.40
2016,08,07,02,06,14.40
2016,08,07,02,07,14.40
2016,08,07,02,08,14.40
2016,08,07,02,09,14.40
2016,08,07,02,10,14.40
2016,08,07,02,11,14.40
2016,08,07,02,12,14.40
2016,08,07,02,13,14.40
2016,08,07,02,14,14.40
2016,08,07,02,15,14.40
2016,08,07,02,16,14.40
2016,08,07,02,17,14.40
2016,08,07,02,18,14.40
2016,08,07,02,19,14.40
2016,08,07,02,20,14.40
2016,08,07,02,21,14.40
2016,08,07,02,22,14.40
2016,08,07,02,23,14.40
2016,08,07,02,24,14.40
2016,08,07,02,25,14.40
2016,08,07,02,26,14.40
2016,08,07,02,27,14.40
2016,08,07,02,28,14.40
2016,08,07,02,29,14.40
2016,08,07,02,30,14.40
2016,08,07,02,31,14.40
2016,08,07,02,32,14.40
2016,08,07,02,33,14.30
2016,08,07,02,34,14.30
2016,08,07,02,35,14.30
2016,08,07,02,36,14.30
2016,08,07,02,37,14.30
2016,08,07,02,38,14.30
2016,08,07,02,39,14.30
2016,08,07,02,40,14.30
2016,08,07,02,41,14.30
2016,08,07,02,42,14.30
2016,08,07,02,43,14.30
2016,08,07,02,44,14.40
2016,08,07,02,45,14.40
2016,08,07,02,46,14.40
2016,08,07,02,47,14.40
2016,08,07,02,48,14.40
2016,08,07,02,49,14.40
2016,08,07,02,50,14.40
2016,08,07,02,51,14.40
2016,08,07,02,52,14.40
2016,08,07,02,53,14.40
2016,08,07,02,54,14.40
2016,08,07,02,55,14.40
2016,08,07,02,56,14.40
2016,08,07,02,57,14.40
2016,08,07,02,58,14.40
2016,08,07,02,59,14.40
2016,08,07,03,00,14.40
2016,08,07,03,01,14.40
2016,08,07,03,02,14.40
2016,08,07,03,03,14.40
2016,08,07,03,04,14.40
2016,08,07,03,05,14.40
2016,08,07,03,06,14.40
2016,08,07,03,07,14.40
2016,08,07,03,08,14.40
2016,08,07,03,09,14.40
2016,08,07,03,10,14.40
2016,08,07,03,11,14.40
2016,08,07,03,12,14.40
2016,08,07,03,13,14.40
2016,08,07,03,14,14.40
2016,08,07,03,15,14.40
2016,08,07,03,16,14.40
2016,08,07,03,17,14.40
2016,08,07,03,18,14.40
2016,08,07,03,19,14.40
2016,08,07,03,20,14.40
2016,08,07,03,21,14.40
2016,08,07,03,22,14.40
2016,08,07,03,23,14.40
2016,08,07,03,24,14.40
2016,08,07,03,25,14.40
2016,08,07,03,26,14.40
2016,08,07,03,27,14.40
2016,08,07,03,28,14.40
2016,08,07,03,29,14.40
2016,08,07,03,30,14.40
2016,08,07,03,31,14.40
2016,08,07,03,32,14.40
2016,08,07,03,33,14.40
2016,08,07,03,34,14.40
2016,08,07,03,35,14.40
2016,08,07,03,36,14.40
2016,08,07,03,37,14.40
2016,08,07,03,38,14.40
2016,08,07,03,39,14.40
2016,08,07,03,40,14.40
2016,08,07,03,41,14.40
2016,08,07,03,42,14.40
2016,08,07,03,43,14.40
2016,08,07,03,44,14.50
2016,08,07,03,45,14.50
2016,08,07,03,46,14.50
2016,08,07,03,47,14.50
2016,08,07,03,48,14.50
2016,08,07,03,49,14.50
2016,08,07,03,50,14.50
2016,08,07,03,51,14.50
2016,08,07,03,52,14.50
2016,08,07,03,53,14.50
2016,08,07,03,54,14.50
2016,08,07,03,55,14.50
2016,08,07,03,56,14.50
2016,08,07,03,57,14.50
2016,08,07,03,58,14.50
2016,08,07,03,59,14.50
2016,08,07,04,00,14.40
2016,08,07,04,01,14.50
2016,08,07,04,02,14.50
2016,08,07,04,03,14.50
2016,08,07,04,04,14.50
2016,08,07,04,05,14.50
2016,08,07,04,06,14.50
2016,08,07,04,07,14.50
2016,08,07,04,08,14.50
2016,08,07,04,09,14.50
2016,08,07,04,10,14.50
2016,08,07,04,11,14.50
2016,08,07,04,12,14.40
2016,08,07,04,13,14.40
2016,08,07,04,14,14.40
2016,08,07,04,15,14.40
2016,08,07,04,16,14.40
2016,08,07,04,17,14.40
2016,08,07,04,18,14.40
2016,08,07,04,19,14.40
2016,08,07,04,20,14.30
2016,08,07,04,21,14.30
2016,08,07,04,22,14.30
2016,08,07,04,23,14.30
2016,08,07,04,24,14.30
2016,08,07,04,25,14.30
2016,08,07,04,26,14.30
2016,08,07,04,27,14.20
2016,08,07,04,28,14.20
2016,08,07,04,29,14.20
2016,08,07,04,30,14.20
2016,08,07,04,31,14.20
2016,08,07,04,32,14.20
2016,08,07,04,33,14.20
2016,08,07,04,34,14.20
2016,08,07,04,35,14.20
2016,08,07,04,36,14.20
2016,08,07,04,37,14.20
2016,08,07,04,38,14.20
2016,08,07,04,39,14.20
2016,08,07,04,40,14.20
2016,08,07,04,41,14.20
2016,08,07,04,42,14.10
2016,08,07,04,43,14.10
2016,08,07,04,44,14.10
2016,08,07,04,45,14.10
2016,08,07,04,46,14.10
2016,08,07,04,47,14.00
2016,08,07,04,48,14.00
2016,08,07,04,49,14.00
2016,08,07,04,50,14.00
2016,08,07,04,51,14.00
2016,08,07,04,52,14.00
2016,08,07,04,53,14.00
2016,08,07,04,54,14.00
2016,08,07,04,55,14.00
2016,08,07,04,56,14.00
2016,08,07,04,57,13.90
2016,08,07,04,58,13.90
2016,08,07,04,59,13.90
2016,08,07,05,00,13.90
2016,08,07,05,01,13.90
2016,08,07,05,02,13.90
2016,08,07,05,03,13.90
2016,08,07,05,04,13.90
2016,08,07,05,05,13.90
2016,08,07,05,06,13.90
2016,08,07,05,07,13.90
2016,08,07,05,08,13.90
2016,08,07,05,09,13.90
2016,08,07,05,10,13.90
2016,08,07,05,11,13.90
2016,08,07,05,12,13.90
2016,08,07,05,13,13.80
2016,08,07,05,14,13.80
2016,08,07,05,15,13.90
2016,08,07,05,16,13.90
2016,08,07,05,17,13.90
2016,08,07,05,18,13.90
2016,08,07,05,19,13.90
2016,08,07,05,20,13.90
2016,08,07,05,21,13.90
2016,08,07,05,22,13.90
2016,08,07,05,23,13.90
2016,08,07,05,24,13.90
2016,08,07,05,25,13.90
2016,08,07,05,26,13.90
2016,08,07,05,27,13.90
2016,08,07,05,28,13.90
2016,08,07,05,29,14.00
2016,08,07,05,30,14.00
2016,08,07,05,31,14.00
2016,08,07,05,32,14.00
2016,08,07,05,33,14.00
2016,08,07,05,34,14.00
2016,08,07,05,35,14.00
2016,08,07,05,36,14.00
2016,08,07,05,37,14.00
2016,08,07,05,38,14.00
2016,08,07,05,39,14.00
2016,08,07,05,40,14.00
2016,08,07,05,41,14.00
2016,08,07,05,42,14.00
2016,08,07,05,43,14.00
2016,08,07,05,44,14.00
2016,08,07,05,45,14.00
2016,08,07,05,46,14.00
2016,08,07,05,47,14.00
2016,08,07,05,48,14.00
2016,08,07,05,49,14.00
2016,08,07,05,50,14.00
2016,08,07,05,51,14.10
2016,08,07,05,52,14.10
2016,08,07,05,53,14.10
2016,08,07,05,54,14.10
2016,08,07,05,55,14.10
2016,08,07,05,56,14.10
2016,08,07,05,57,14.10
2016,08,07,05,58,14.10
2016,08,07,05,59,14.10
2016,08,07,06,00,14.10
2016,08,07,06,01,14.10
2016,08,07,06,02,14.10
2016,08,07,06,03,14.10
2016,08,07,06,04,14.10
2016,08,07,06,05,14.10
2016,08,07,06,06,14.10
2016,08,07,06,07,14.10
2016,08,07,06,08,14.10
2016,08,07,06,09,14.10
2016,08,07,06,10,14.10
2016,08,07,06,11,14.10
2016,08,07,06,12,14.10
2016,08,07,06,13,14.10
2016,08,07,06,14,14.00
2016,08,07,06,15,14.00
2016,08,07,06,16,14.00
2016,08,07,06,17,14.00
2016,08,07,06,18,14.00
2016,08,07,06,19,14.00
2016,08,07,06,20,14.10
2016,08,07,06,21,14.10
2016,08,07,06,22,14.10
2016,08,07,06,23,14.10
2016,08,07,06,24,14.10
2016,08,07,06,25,14.10
2016,08,07,06,26,14.10
2016,08,07,06,27,14.10
2016,08,07,06,28,14.10
2016,08,07,06,29,14.10
2016,08,07,06,30,14.10
2016,08,07,06,31,14.10
2016,08,07,06,32,14.10
2016,08,07,06,33,14.10
2016,08,07,06,34,14.20
2016,08,07,06,35,14.20
2016,08,07,06,36,14.20
2016,08,07,06,37,14.20
2016,08,07,06,38,14.20
2016,08,07,06,39,14.20
2016,08,07,06,40,14.20
2016,08,07,06,41,14.20
2016,08,07,06,42,14.30
2016,08,07,06,43,14.30
2016,08,07,06,44,14.30
2016,08,07,06,45,14.30
2016,08,07,06,46,14.40
2016,08,07,06,47,14.40
2016,08,07,06,48,14.40
2016,08,07,06,49,14.40
2016,08,07,06,50,14.50
2016,08,07,06,51,14.50
2016,08,07,06,52,14.50
2016,08,07,06,53,14.50
2016,08,07,06,54,14.60
2016,08,07,06,55,14.60
2016,08,07,06,56,14.60
2016,08,07,06,57,14.60
2016,08,07,06,58,14.70
2016,08,07,06,59,14.70
2016,08,07,07,00,14.70
2016,08,07,07,01,14.70
2016,08,07,07,02,14.80
2016,08,07,07,03,14.80
2016,08,07,07,04,14.80
2016,08,07,07,05,14.80
2016,08,07,07,06,14.80
2016,08,07,07,07,14.80
2016,08,07,07,08,14.80
2016,08,07,07,09,14.80
2016,08,07,07,10,14.90
2016,08,07,07,11,14.90
2016,08,07,07,12,14.90
2016,08,07,07,13,14.90
2016,08,07,07,14,14.90
2016,08,07,07,15,15.00
2016,08,07,07,16,15.00
2016,08,07,07,17,15.00
2016,08,07,07,18,15.00
2016,08,07,07,19,15.10
2016,08,07,07,20,15.10
2016,08,07,07,21,15.10
2016,08,07,07,22,15.10
2016,08,07,07,23,15.20
2016,08,07,07,24,15.20
2016,08,07,07,25,15.20
2016,08,07,07,26,15.30
2016,08,07,07,27,15.30
2016,08,07,07,28,15.30
2016,08,07,07,29,15.40
2016,08,07,07,30,15.40
2016,08,07,07,31,15.50
2016,08,07,07,32,15.50
2016,08,07,07,33,15.50
2016,08,07,07,34,15.50
2016,08,07,07,35,15.60
2016,08,07,07,36,15.60
2016,08,07,07,37,15.60
2016,08,07,07,38,15.60
2016,08,07,07,39,15.60
2016,08,07,07,40,15.70
2016,08,07,07,41,15.70
2016,08,07,07,42,15.70
2016,08,07,07,43,15.70
2016,08,07,07,44,15.70
2016,08,07,07,45,15.70
2016,08,07,07,46,15.80
2016,08,07,07,47,15.80
2016,08,07,07,48,15.80
2016,08,07,07,49,15.80
2016,08,07,07,50,15.80
2016,08,07,07,51,15.80
2016,08,07,07,52,15.80
2016,08,07,07,53,15.80
2016,08,07,07,54,15.80
2016,08,07,07,55,15.80
2016,08,07,07,56,15.80
2016,08,07,07,57,15.90
2016,08,07,07,58,15.90
2016,08,07,07,59,15.90
2016,08,07,08,00,15.90
2016,08,07,08,01,15.90
2016,08,07,08,02,15.90
2016,08,07,08,03,15.90
2016,08,07,08,04,15.90
2016,08,07,08,05,16.00
2016,08,07,08,06,16.10
2016,08,07,08,07,16.10
2016,08,07,08,08,16.10
2016,08,07,08,09,16.10
2016,08,07,08,10,16.10
2016,08,07,08,11,16.10
2016,08,07,08,12,16.10
2016,08,07,08,13,16.20
2016,08,07,08,14,16.20
2016,08,07,08,15,16.20
2016,08,07,08,16,16.20
2016,08,07,08,17,16.30
2016,08,07,08,18,16.30
2016,08,07,08,19,16.30
2016,08,07,08,20,16.30
2016,08,07,08,21,16.30
2016,08,07,08,22,16.30
2016,08,07,08,23,16.30
2016,08,07,08,24,16.30
2016,08,07,08,25,16.40
2016,08,07,08,26,16.40
2016,08,07,08,27,16.40
2016,08,07,08,28,16.40
2016,08,07,08,29,16.40
2016,08,07,08,30,16.40
2016,08,07,08,31,16.40
2016,08,07,08,32,16.40
2016,08,07,08,33,16.40
2016,08,07,08,34,16.40
2016,08,07,08,35,16.40
2016,08,07,08,36,16.40
2016,08,07,08,37,16.30
2016,08,07,08,38,16.40
2016,08,07,08,39,16.40
2016,08,07,08,40,16.40
2016,08,07,08,41,16.30
2016,08,07,08,42,16.30
2016,08,07,08,43,16.30
2016,08,07,08,44,16.40
2016,08,07,08,45,16.40
2016,08,07,08,46,16.30
2016,08,07,08,47,16.30
2016,08,07,08,48,16.30
2016,08,07,08,49,16.30
2016,08,07,08,50,16.20
2016,08,07,08,51,16.20
2016,08,07,08,52,16.20
2016,08,07,08,53,16.20
2016,08,07,08,54,16.20
2016,08,07,08,55,16.10
2016,08,07,08,56,16.10
2016,08,07,08,57,16.10
2016,08,07,08,58,16.10
2016,08,07,08,59,16.10
2016,08,07,09,00,16.10
2016,08,07,09,01,16.10
2016,08,07,09,02,16.10
2016,08,07,09,03,16.10
2016,08,07,09,04,16.10
2016,08,07,09,05,16.10
2016,08,07,09,06,16.10
2016,08,07,09,07,16.10
2016,08,07,09,08,16.10
2016,08,07,09,09,16.10
2016,08,07,09,10,16.10
2016,08,07,09,11,16.10
2016,08,07,09,12,16.10
2016,08,07,09,13,16.10
2016,08,07,09,14,16.10
2016,08,07,09,15,16.10
2016,08,07,09,16,16.10
2016,08,07,09,17,16.10
2016,08,07,09,18,16.20
2016,08,07,09,19,16.20
2016,08,07,09,20,16.20
2016,08,07,09,21,16.30
2016,08,07,09,22,16.30
2016,08,07,09,23,16.30
2016,08,07,09,24,16.30
2016,08,07,09,25,16.40
2016,08,07,09,26,16.40
2016,08,07,09,27,16.40
2016,08,07,09,28,16.40
2016,08,07,09,29,16.40
2016,08,07,09,30,16.50
2016,08,07,09,31,16.60
2016,08,07,09,32,16.60
2016,08,07,09,33,16.60
2016,08,07,09,34,16.60
2016,08,07,09,35,16.70
2016,08,07,09,36,16.70
2016,08,07,09,37,16.70
2016,08,07,09,38,16.70
2016,08,07,09,39,16.70
2016,08,07,09,40,16.70
2016,08,07,09,41,16.70
2016,08,07,09,42,16.70
2016,08,07,09,43,16.60
2016,08,07,09,44,16.60
2016,08,07,09,45,16.60
2016,08,07,09,46,16.60
2016,08,07,09,47,16.60
2016,08,07,09,48,16.60
2016,08,07,09,49,16.60
2016,08,07,09,50,16.60
2016,08,07,09,51,16.60
2016,08,07,09,52,16.60
2016,08,07,09,53,16.70
2016,08,07,09,54,16.70
2016,08,07,09,55,16.70
2016,08,07,09,56,16.70
2016,08,07,09,57,16.70
2016,08,07,09,58,16.70
2016,08,07,09,59,16.70
2016,08,07,10,00,16.80
2016,08,07,10,01,16.80
2016,08,07,10,02,16.90
2016,08,07,10,03,16.90
2016,08,07,10,04,16.90
2016,08,07,10,05,17.00
2016,08,07,10,06,17.00
2016,08,07,10,07,17.00
2016,08,07,10,08,17.00
2016,08,07,10,09,17.00
2016,08,07,10,10,17.10
2016,08,07,10,11,17.10
2016,08,07,10,12,17.10
2016,08,07,10,13,17.10
2016,08,07,10,14,17.00
2016,08,07,10,15,17.00
2016,08,07,10,16,17.00
2016,08,07,10,17,16.90
2016,08,07,10,18,16.90
2016,08,07,10,19,16.80
2016,08,07,10,20,16.80
2016,08,07,10,21,16.80
2016,08,07,10,22,16.80
2016,08,07,10,23,16.80
2016,08,07,10,24,16.70
2016,08,07,10,25,16.70
2016,08,07,10,26,16.70
2016,08,07,10,27,16.60
2016,08,07,10,28,16.60
2016,08,07,10,29,16.60
2016,08,07,10,30,16.50
2016,08,07,10,31,16.40
2016,08,07,10,32,16.40
2016,08,07,10,33,16.40
2016,08,07,10,34,16.40
2016,08,07,10,35,16.40
2016,08,07,10,36,16.40
2016,08,07,10,37,16.40
2016,08,07,10,38,16.40
2016,08,07,10,39,16.40
2016,08,07,10,40,16.40
2016,08,07,10,41,16.30
2016,08,07,10,42,16.30
2016,08,07,10,43,16.30
2016,08,07,10,44,16.20
2016,08,07,10,45,16.20
2016,08,07,10,46,16.20
2016,08,07,10,47,16.10
2016,08,07,10,48,16.10
2016,08,07,10,49,16.10
2016,08,07,10,50,16.00
2016,08,07,10,51,15.90
2016,08,07,10,52,15.80
2016,08,07,10,53,15.80
2016,08,07,10,54,15.80
2016,08,07,10,55,15.70
2016,08,07,10,56,15.70
2016,08,07,10,57,15.60
2016,08,07,10,58,15.50
2016,08,07,10,59,15.50
2016,08,07,11,00,15.40
2016,08,07,11,01,15.40
2016,08,07,11,02,15.30
2016,08,07,11,03,15.30
2016,08,07,11,04,15.30
2016,08,07,11,05,15.30
2016,08,07,11,06,15.30
2016,08,07,11,07,15.30
2016,08,07,11,08,15.30
2016,08,07,11,09,15.30
2016,08,07,11,10,15.30
2016,08,07,11,11,15.30
2016,08,07,11,12,15.30
2016,08,07,11,13,15.30
2016,08,07,11,14,15.30
2016,08,07,11,15,15.30
2016,08,07,11,16,15.30
2016,08,07,11,17,15.40
2016,08,07,11,18,15.30
2016,08,07,11,19,15.30
2016,08,07,11,20,15.30
2016,08,07,11,21,15.30
2016,08,07,11,22,15.30
2016,08,07,11,23,15.30
2016,08,07,11,24,15.30
2016,08,07,11,25,15.30
2016,08,07,11,26,15.20
2016,08,07,11,27,15.20
2016,08,07,11,28,15.10
2016,08,07,11,29,15.00
2016,08,07,11,30,15.00
2016,08,07,11,31,14.90
2016,08,07,11,32,14.90
2016,08,07,11,33,14.80
2016,08,07,11,34,14.80
2016,08,07,11,35,14.80
2016,08,07,11,36,14.80
2016,08,07,11,37,14.80
2016,08,07,11,38,14.80
2016,08,07,11,39,14.80
2016,08,07,11,40,14.80
2016,08,07,11,41,14.80
2016,08,07,11,42,14.80
2016,08,07,11,43,14.80
2016,08,07,11,44,14.80
2016,08,07,11,45,14.80
2016,08,07,11,46,14.80
2016,08,07,11,47,14.80
2016,08,07,11,48,14.80
2016,08,07,11,49,14.80
2016,08,07,11,50,14.80
2016,08,07,11,51,14.90
2016,08,07,11,52,14.90
2016,08,07,11,53,14.90
2016,08,07,11,54,14.90
2016,08,07,11,55,14.90
2016,08,07,11,56,14.90
2016,08,07,11,57,14.90
2016,08,07,11,58,15.00
2016,08,07,11,59,15.00
2016,08,07,12,00,15.00
2016,08,07,12,01,15.00
2016,08,07,12,02,15.10
2016,08,07,12,03,15.20
2016,08,07,12,04,15.20
2016,08,07,12,05,15.20
2016,08,07,12,06,15.20
2016,08,07,12,07,15.20
2016,08,07,12,08,15.20
2016,08,07,12,09,15.20
2016,08,07,12,10,15.20
2016,08,07,12,11,15.20
2016,08,07,12,12,15.30
2016,08,07,12,13,15.30
2016,08,07,12,14,15.20
2016,08,07,12,15,15.20
2016,08,07,12,16,15.20
2016,08,07,12,17,15.30
2016,08,07,12,18,15.30
2016,08,07,12,19,15.30
2016,08,07,12,20,15.30
2016,08,07,12,21,15.30
2016,08,07,12,22,15.30
2016,08,07,12,23,15.30
2016,08,07,12,24,15.30
2016,08,07,12,25,15.40
2016,08,07,12,26,15.30
2016,08,07,12,27,15.40
2016,08,07,12,28,15.40
2016,08,07,12,29,15.40
2016,08,07,12,30,15.40
2016,08,07,12,31,15.40
2016,08,07,12,32,15.50
2016,08,07,12,33,15.60
2016,08,07,12,34,15.60
2016,08,07,12,35,15.60
2016,08,07,12,36,15.60
2016,08,07,12,37,15.60
2016,08,07,12,38,15.60
2016,08,07,12,39,15.60
2016,08,07,12,40,15.60
2016,08,07,12,41,15.60
2016,08,07,12,42,15.60
2016,08,07,12,43,15.60
2016,08,07,12,44,15.70
2016,08,07,12,45,15.80
2016,08,07,12,46,15.90
2016,08,07,12,47,16.00
2016,08,07,12,48,16.10
2016,08,07,12,49,16.10
2016,08,07,12,50,16.10
2016,08,07,12,51,16.10
2016,08,07,12,52,16.10
2016,08,07,12,53,16.10
2016,08,07,12,54,16.20
2016,08,07,12,55,16.20
2016,08,07,12,56,16.10
2016,08,07,12,57,16.10
2016,08,07,12,58,16.10
2016,08,07,12,59,16.10
2016,08,07,13,00,16.20
2016,08,07,13,01,16.20
2016,08,07,13,02,16.10
2016,08,07,13,03,16.10
2016,08,07,13,04,16.20
2016,08,07,13,05,16.30
2016,08,07,13,06,16.40
2016,08,07,13,07,16.40
2016,08,07,13,08,16.50
2016,08,07,13,09,16.60
2016,08,07,13,10,16.70
2016,08,07,13,11,16.70
2016,08,07,13,12,16.70
2016,08,07,13,13,16.80
2016,08,07,13,14,16.80
2016,08,07,13,15,16.80
2016,08,07,13,16,16.90
2016,08,07,13,17,16.90
2016,08,07,13,18,16.90
2016,08,07,13,19,16.90
2016,08,07,13,20,16.90
2016,08,07,13,21,16.90
2016,08,07,13,22,16.90
2016,08,07,13,23,16.80
2016,08,07,13,24,16.90
2016,08,07,13,25,16.90
2016,08,07,13,26,16.90
2016,08,07,13,27,17.00
2016,08,07,13,28,17.00
2016,08,07,13,29,17.00
2016,08,07,13,30,17.00
2016,08,07,13,31,17.00
2016,08,07,13,32,17.00
2016,08,07,13,33,17.00
2016,08,07,13,34,16.90
2016,08,07,13,35,16.90
2016,08,07,13,36,16.90
2016,08,07,13,37,17.00
2016,08,07,13,38,17.00
2016,08,07,13,39,16.90
2016,08,07,13,40,16.90
2016,08,07,13,41,17.00
2016,08,07,13,42,17.10
2016,08,07,13,43,17.20
2016,08,07,13,44,17.30
2016,08,07,13,45,17.40
2016,08,07,13,46,17.40
2016,08,07,13,47,17.40
2016,08,07,13,48,17.40
2016,08,07,13,49,17.40
2016,08,07,13,50,17.40
2016,08,07,13,51,17.30
2016,08,07,13,52,17.30
2016,08,07,13,53,17.40
2016,08,07,13,54,17.50
2016,08,07,13,55,17.50
2016,08,07,13,56,17.70
2016,08,07,13,57,17.60
2016,08,07,13,58,17.60
2016,08,07,13,59,17.60
2016,08,07,14,00,17.50
2016,08,07,14,01,17.50
2016,08,07,14,02,17.50
2016,08,07,14,03,17.40
2016,08,07,14,04,17.40
2016,08,07,14,05,17.30
2016,08,07,14,06,17.40
2016,08,07,14,07,17.50
2016,08,07,14,08,17.50
2016,08,07,14,09,17.60
2016,08,07,14,10,17.70
2016,08,07,14,11,17.90
2016,08,07,14,12,18.00
2016,08,07,14,13,18.10
2016,08,07,14,14,18.20
2016,08,07,14,15,18.20
2016,08,07,14,16,18.20
2016,08,07,14,17,18.20
2016,08,07,14,18,18.00
2016,08,07,14,19,18.10
2016,08,07,14,20,18.00
2016,08,07,14,21,17.90
2016,08,07,14,22,17.90
2016,08,07,14,23,17.90
2016,08,07,14,24,17.80
2016,08,07,14,25,17.80
2016,08,07,14,26,17.80
2016,08,07,14,27,17.80
2016,08,07,14,28,17.80
2016,08,07,14,29,17.70
2016,08,07,14,30,17.80
2016,08,07,14,31,17.90
2016,08,07,14,32,17.90
2016,08,07,14,33,18.00
2016,08,07,14,34,18.10
2016,08,07,14,35,18.10
2016,08,07,14,36,18.10
2016,08,07,14,37,18.10
2016,08,07,14,38,18.10
2016,08,07,14,39,18.20
2016,08,07,14,40,18.20
2016,08,07,14,41,18.20
2016,08,07,14,42,18.20
2016,08,07,14,43,18.30
2016,08,07,14,44,18.20
2016,08,07,14,45,18.20
2016,08,07,14,46,18.20
2016,08,07,14,47,18.20
2016,08,07,14,48,18.20
2016,08,07,14,49,18.10
2016,08,07,14,50,18.00
2016,08,07,14,51,17.90
2016,08,07,14,52,17.90
2016,08,07,14,53,17.90
2016,08,07,14,54,17.90
2016,08,07,14,55,17.90
2016,08,07,14,56,17.90
2016,08,07,14,57,18.00
2016,08,07,14,58,18.10
2016,08,07,14,59,18.20
2016,08,07,15,00,18.20
2016,08,07,15,01,18.20
2016,08,07,15,02,18.20
2016,08,07,15,03,18.20
2016,08,07,15,04,18.30
2016,08,07,15,05,18.40
2016,08,07,15,06,18.40
2016,08,07,15,07,18.50
2016,08,07,15,08,18.50
2016,08,07,15,09,18.60
2016,08,07,15,10,18.70
2016,08,07,15,11,18.80
2016,08,07,15,12,18.80
2016,08,07,15,13,18.90
2016,08,07,15,14,18.90
2016,08,07,15,15,18.90
2016,08,07,15,16,18.90
2016,08,07,15,17,18.90
2016,08,07,15,18,19.00
2016,08,07,15,19,19.10
2016,08,07,15,20,19.10
2016,08,07,15,21,19.10
2016,08,07,15,22,19.10
2016,08,07,15,23,19.00
2016,08,07,15,24,18.90
2016,08,07,15,25,18.90
2016,08,07,15,26,18.90
2016,08,07,15,27,18.90
2016,08,07,15,28,18.90
2016,08,07,15,29,18.90
2016,08,07,15,30,19.00
2016,08,07,15,31,19.00
2016,08,07,15,32,18.90
2016,08,07,15,33,18.90
2016,08,07,15,34,18.90
2016,08,07,15,35,19.10
2016,08,07,15,36,19.00
2016,08,07,15,37,18.90
2016,08,07,15,38,18.90
2016,08,07,15,39,18.90
2016,08,07,15,40,18.90
2016,08,07,15,41,18.90
2016,08,07,15,42,19.00
2016,08,07,15,43,19.00
2016,08,07,15,44,19.00
2016,08,07,15,45,19.10
2016,08,07,15,46,19.10
2016,08,07,15,47,18.90
2016,08,07,15,48,19.00
2016,08,07,15,49,19.10
2016,08,07,15,50,19.10
2016,08,07,15,51,19.30
2016,08,07,15,52,19.40
2016,08,07,15,53,19.40
2016,08,07,15,54,19.60
2016,08,07,15,55,19.70
2016,08,07,15,56,19.80
2016,08,07,15,57,19.80
2016,08,07,15,58,19.80
2016,08,07,15,59,19.80
2016,08,07,16,00,19.90
2016,08,07,16,01,19.90
2016,08,07,16,02,19.90
2016,08,07,16,03,19.90
2016,08,07,16,04,19.90
2016,08,07,16,05,19.90
2016,08,07,16,06,19.90
2016,08,07,16,07,19.90
2016,08,07,16,08,19.90
2016,08,07,16,09,19.90
2016,08,07,16,10,19.90
2016,08,07,16,11,19.80
2016,08,07,16,12,19.80
2016,08,07,16,13,19.70
2016,08,07,16,14,19.70
2016,08,07,16,15,19.60
2016,08,07,16,16,19.70
2016,08,07,16,17,19.70
2016,08,07,16,18,19.90
2016,08,07,16,19,20.00
2016,08,07,16,20,20.10
2016,08,07,16,21,20.20
2016,08,07,16,22,20.20
2016,08,07,16,23,20.20
2016,08,07,16,24,20.20
2016,08,07,16,25,20.20
2016,08,07,16,26,20.20
2016,08,07,16,27,20.20
2016,08,07,16,28,20.30
2016,08,07,16,29,20.30
2016,08,07,16,30,20.40
2016,08,07,16,31,20.40
2016,08,07,16,32,20.40
2016,08,07,16,33,20.40
2016,08,07,16,34,20.40
2016,08,07,16,35,20.30
2016,08,07,16,36,20.20
2016,08,07,16,37,20.30
2016,08,07,16,38,20.40
2016,08,07,16,39,20.40
2016,08,07,16,40,20.40
2016,08,07,16,41,20.30
2016,08,07,16,42,20.40
2016,08,07,16,43,20.40
2016,08,07,16,44,20.50
2016,08,07,16,45,20.50
2016,08,07,16,46,20.50
2016,08,07,16,47,20.50
2016,08,07,16,48,20.50
2016,08,07,16,49,20.40
2016,08,07,16,50,20.30
2016,08,07,16,51,20.20
2016,08,07,16,52,20.00
2016,08,07,16,53,19.80
2016,08,07,16,54,19.60
2016,08,07,16,55,19.50
2016,08,07,16,56,19.30
2016,08,07,16,57,19.20
2016,08,07,16,58,19.10
2016,08,07,16,59,19.00
2016,08,07,17,00,18.90
2016,08,07,17,01,18.90
2016,08,07,17,02,18.80
2016,08,07,17,03,18.70
2016,08,07,17,04,18.70
2016,08,07,17,05,18.70
2016,08,07,17,06,18.70
2016,08,07,17,07,18.80
2016,08,07,17,08,18.90
2016,08,07,17,09,18.90
2016,08,07,17,10,19.10
2016,08,07,17,11,19.10
2016,08,07,17,12,19.10
2016,08,07,17,13,19.20
2016,08,07,17,14,19.20
2016,08,07,17,15,19.20
2016,08,07,17,16,19.30
2016,08,07,17,17,19.30
2016,08,07,17,18,19.30
2016,08,07,17,19,19.30